Tracking 29493 objects as of 8-Sep-2024
HD Live streaming from Space Station
objects crossing your sky now

FENGYUN 1C DEB

Track FENGYUN 1C DEB now!
10-day predictions


NORAD ID: 30398
Int'l Code: 1999-025ADM
Perigee: 849.4 km
Apogee: 1,108.1 km
Inclination: 99.8 °
Period: 104.5 minutes
Semi major axis: 7349 km
RCS: 0.0135 m2 (small)
Launch date: May 10, 1999
Source: People's Republic of China (PRC)
Launch site: Taiyaun Space Center, China (TSC)

Note: This is SATELLITE DEBRIS
Your satellite tracking list
Your tracking list is empty




NASA's NSSDC Master Catalog

Two Line Element Set (TLE):
1 30398U 99025ADM 24252.61460311  .00002599  00000-0  23560-2 0  9998
2 30398  99.7534 131.2206 0175960  53.5089 337.4530 13.77827055884184
Source of the keplerian elements: AFSPC